Location: St. Louis
(38.6270°N, 90.1994°W)
Time: 21:05:32
(UTC-06:00)

Vanguard 2 - Pass Details

Date: 30 November 2021
Orbit: 553 x 2936 km, 32.9° (Epoch: 21 January)

Event Time Altitude Azimuth Distance (km) Brightness Sun altitude
Rises 12:54:17 0° 214° (SW) 2,870 11.6 27.7°
Reaches altitude 10° 12:56:46 10° 197° (SSW) 2,123 11.6 27.6°
Maximum altitude 13:00:27 21° 147° (SSE) 1,761 10.1 27.4°
Drops below altitude 10° 13:05:20 10° 100° (E) 2,913 10.5 27.1°
Sets 13:09:27 0° 86° (E) 4,319 11.1 26.8°
